La Plata, MO

3:49 PM CST on February 09, 2016 (GMT -0600)
Kirksville Regional

Weather History for KIRK - March, 2013

Change the Weather History Date:

Friday, March 15, 2013

  Actual Average Record
Temperature  
Mean Temperature 50 °F 40 °F  
Max Temperature 72 °F 51 °F - ()
Min Temperature 27 °F 30 °F - ()
Degree Days  
Heating Degree Days 15 25  
Month to date heating degree days 505 414  
Since 1 July heating degree days 4885 4947  
Cooling Degree Days 0 0  
Month to date cooling degree days 0 0  
Year to date cooling degree days 0 0  
Moisture  
Dew Point 39 °F    
Average Humidity 68    
Maximum Humidity 92    
Minimum Humidity 44    
Precipitation  
Precipitation 0.00 in 0.09 in - ()
Month to date precipitation 2.63 1.25  
Year to date precipitation 8.08 4.05  
Sea Level Pressure  
Sea Level Pressure 29.86 in    
Wind  
Wind Speed 5 mph (ESE)    
Max Wind Speed 16 mph    
Max Gust Speed 22 mph    
Visibility 8 miles    
Events      
T = Trace of Precipitation, MM = Missing Value Source: NWS Daily Summary

Daily Weather History Graph

Daily Weather History Graph

Search for Another Location

Airport or City:

Trip Planner

Search our weather history database for the weather conditions in past years. The results will help you decide how hot, cold, wet, or windy it might be!

Date:

Astronomy

Mar. 15, 2013 Rise Set
Actual Time 7:21 AM CDT 7:17 PM CDT
Civil Twilight 6:54 AM CDT 7:44 PM CDT
Nautical Twilight 6:22 AM CDT 8:15 PM CDT
Astronomical Twilight 5:50 AM CDT 8:47 PM CDT
Moon 9:11 AM CDT (3/15) 11:31 PM CDT (3/15)
Length of Visible Light 12h 50m
Length of Day
11h 56m
Waxing Crescent, 15% of the Moon is Illuminated
Mar 15
Waxing Crescent
Mar 19
First Quarter
Mar 27
Full
Apr 2
Last Quarter
Apr 10
New

Hourly Weather History & Observations

Time (CDT) Temp. Windchill Dew Point Humidity Pressure Visibility Wind Dir Wind Speed Gust Speed Precip Events Conditions
12:55 AM 36.0 °F - 32.0 °F 86% 30.09 in 10.0 mi Calm Calm - N/A   Clear
1:55 AM 32.0 °F - 28.9 °F 88% 30.06 in 7.0 mi Calm Calm - N/A   Clear
2:55 AM 28.9 °F - 27.0 °F 92% 30.04 in 6.0 mi Calm Calm - N/A   Clear
3:55 AM 28.9 °F - 27.0 °F 92% 30.02 in 3.0 mi Calm Calm - N/A   Clear
4:55 AM 28.0 °F - 26.1 °F 92% 29.99 in 3.0 mi Calm Calm - N/A   Clear
5:55 AM 28.0 °F 24.2 °F 26.1 °F 92% 29.99 in 7.0 mi West 3.5 mph - N/A   Clear
6:55 AM 28.0 °F 24.2 °F 26.1 °F 92% 29.98 in 7.0 mi WSW 3.5 mph - N/A   Clear
7:55 AM 34.0 °F - 30.9 °F 89% 29.97 in 6.0 mi Calm Calm - N/A   Clear
8:55 AM 37.9 °F - 35.1 °F 89% 29.97 in 5.0 mi Calm Calm - N/A   Clear
9:55 AM 43.0 °F 41.3 °F 37.9 °F 82% 29.95 in 7.0 mi SE 3.5 mph - N/A   Clear
10:55 AM 50.0 °F - 42.1 °F 74% 29.94 in 8.0 mi ESE 5.8 mph - N/A   Clear
11:55 AM 57.9 °F - 45.0 °F 62% 29.88 in 10.0 mi SE 9.2 mph - N/A   Clear
12:55 PM 62.1 °F - 45.0 °F 53% 29.83 in 10.0 mi SE 12.7 mph - N/A   Clear
1:55 PM 64.9 °F - 46.9 °F 52% 29.78 in 10.0 mi SSE 16.1 mph - N/A   Clear
2:55 PM 68.0 °F - 50.0 °F 52% 29.73 in 10.0 mi SE 9.2 mph - N/A   Clear
3:55 PM 69.1 °F - 46.9 °F 45% 29.72 in 10.0 mi SSW 15.0 mph 20.7 mph N/A   Clear
4:55 PM 70.0 °F - 48.0 °F 46% 29.70 in 10.0 mi WSW 3.5 mph - N/A   Clear
5:55 PM 70.0 °F - 48.0 °F 46% 29.68 in 10.0 mi Calm Calm - N/A   Clear
6:55 PM 63.0 °F - 51.1 °F 65% 29.69 in 10.0 mi ENE 3.5 mph - N/A   Clear
7:55 PM 55.9 °F - 48.0 °F 75% 29.70 in 10.0 mi NE 11.5 mph - N/A   Clear
8:55 PM 52.0 °F - 45.0 °F 77% 29.70 in 10.0 mi ENE 5.8 mph - N/A   Clear
9:55 PM 48.9 °F - 44.1 °F 83% 29.70 in 10.0 mi ENE 6.9 mph - N/A   Clear
10:55 PM 42.1 °F 37.7 °F 39.9 °F 92% 29.70 in 8.0 mi NNE 6.9 mph - N/A   Clear